Graham, TX

11:07 PM CDT on March 29, 2017 (GMT -0500)
Graham

Weather History for KRPH - March, 2013

Change the Weather History Date:

Saturday, March 2, 2013

  Actual Average (KMWL) Record (KMWL)
Temperature  
Mean Temperature 42 °F -  
Max Temperature 61 °F 60 °F 78 °F (2006)
Min Temperature 24 °F 38 °F 16 °F (2014)
Degree Days  
Heating Degree Days 22    
Moisture  
Dew Point 28 °F    
Average Humidity 61    
Maximum Humidity 96    
Minimum Humidity 30    
Precipitation  
Precipitation 0.00 in - - ()
Sea Level Pressure  
Sea Level Pressure 30.31 in    
Wind  
Wind Speed 6 mph (NW)    
Max Wind Speed 12 mph    
Max Gust Speed 17 mph    
Visibility 9 miles    
Events      
Averages and records for this station are not official NWS values.
T = Trace of Precipitation, MM = Missing Value Source: NWS Daily Summary

Daily Weather History Graph

Daily Weather History Graph

Search for Another Location

Airport or City:

Trip Planner

Search our weather history database for the weather conditions in past years. The results will help you decide how hot, cold, wet, or windy it might be!

Date:

Astronomy

Mar. 02, 2013 Rise Set
Actual Time 7:00 AM CST 6:32 PM CST
Civil Twilight 6:35 AM CST 6:57 PM CST
Nautical Twilight 6:07 AM CST 7:25 PM CST
Astronomical Twilight 5:38 AM CST 7:54 PM CST
Moon 11:53 PM CST (3/2) 9:48 AM CST (3/2)
Length of Visible Light 12h 21m
Length of Day
11h 31m
Waning Gibbous, 74% of the Moon is Illuminated
Mar 2
Waning Gibbous
Mar 4
Last Quarter
Mar 11
New
Mar 19
First Quarter
Mar 27
Full

Hourly Weather History & Observations

Time (CST) Temp. Windchill Dew Point Humidity Pressure Visibility Wind Dir Wind Speed Gust Speed Precip Events Conditions
12:15 AM 34.0 °F 28.8 °F 27.5 °F 77% 30.33 in 10.0 mi North 5.8 mph - N/A   Clear
12:35 AM 33.3 °F 26.4 °F 27.9 °F 81% 30.34 in 10.0 mi North 8.1 mph - N/A   Clear
12:55 AM 33.6 °F 25.6 °F 28.4 °F 81% 30.35 in 10.0 mi North 10.4 mph - N/A   Clear
1:15 AM 32.7 °F 25.0 °F 28.4 °F 84% 30.35 in 10.0 mi North 9.2 mph - N/A   Clear
1:35 AM 32.0 °F 23.6 °F 28.2 °F 86% 30.35 in 10.0 mi North 10.4 mph - N/A   Scattered Clouds
1:55 AM 32.0 °F 24.2 °F 28.0 °F 85% 30.35 in 10.0 mi North 9.2 mph - N/A   Clear
2:15 AM 31.3 °F 23.9 °F 27.9 °F 87% 30.34 in 10.0 mi North 8.1 mph - N/A   Clear
2:35 AM 31.5 °F 23.5 °F 27.7 °F 86% 30.35 in 10.0 mi North 9.2 mph - N/A   Clear
2:55 AM 30.9 °F 24.3 °F 27.5 °F 87% 30.35 in 10.0 mi North 6.9 mph - N/A   Clear
3:15 AM 30.0 °F 24.1 °F 27.0 °F 88% 30.35 in 10.0 mi NNW 5.8 mph - N/A   Clear
3:35 AM 29.3 °F 23.2 °F 26.6 °F 90% 30.35 in 10.0 mi NNW 5.8 mph - N/A   Clear
3:55 AM 29.8 °F 24.9 °F 26.4 °F 87% 30.36 in 10.0 mi WNW 4.6 mph - N/A   Clear
4:15 AM 29.7 °F 23.7 °F 26.2 °F 87% 30.37 in 10.0 mi West 5.8 mph - N/A   Clear
4:35 AM 29.1 °F 25.4 °F 26.4 °F 90% 30.37 in 10.0 mi NW 3.5 mph - N/A   Clear
4:55 AM 28.2 °F - 25.7 °F 90% 30.37 in 7.0 mi Calm Calm - N/A   Clear
5:15 AM 28.0 °F - 25.9 °F 92% 30.37 in 7.0 mi Calm Calm - N/A   Clear
5:35 AM 28.2 °F - 26.4 °F 93% 30.38 in 7.0 mi Calm Calm - N/A   Clear
5:55 AM 25.9 °F 21.7 °F 24.4 °F 94% 30.38 in 7.0 mi West 3.5 mph - N/A   Clear
6:15 AM 25.7 °F - 24.4 °F 95% 30.39 in 7.0 mi Calm Calm - N/A   Clear
6:35 AM 26.1 °F - 25.0 °F 96% 30.38 in 5.0 mi Calm Calm - N/A   Clear
6:55 AM 24.6 °F - 23.5 °F 96% 30.38 in 5.0 mi Calm Calm - N/A   Clear
7:15 AM 25.0 °F - 24.1 °F 96% 30.39 in 4.0 mi Calm Calm - N/A   Clear
7:35 AM 26.1 °F - 25.0 °F 96% 30.41 in 3.0 mi Calm Calm - N/A   Clear
7:55 AM 28.2 °F - 26.6 °F 94% 30.42 in 5.0 mi Calm Calm - N/A   Clear
8:15 AM 30.0 °F 26.5 °F 27.5 °F 90% 30.42 in 5.0 mi West 3.5 mph - N/A   Clear
8:35 AM 31.8 °F 27.3 °F 28.4 °F 87% 30.44 in 7.0 mi WNW 4.6 mph - N/A   Clear
8:55 AM 34.2 °F 29.0 °F 28.6 °F 80% 30.44 in 10.0 mi North 5.8 mph - N/A   Clear
9:15 AM 36.0 °F 31.1 °F 28.8 °F 75% 30.44 in 10.0 mi NNW 5.8 mph - N/A   Clear
9:35 AM 37.6 °F 34.0 °F 28.6 °F 70% 30.44 in 10.0 mi North 4.6 mph - N/A   Clear
9:55 AM 39.2 °F 34.2 °F 29.1 °F 67% 30.43 in 10.0 mi NW 6.9 mph - N/A   Clear
10:15 AM 41.0 °F 35.2 °F 29.1 °F 63% 30.43 in 10.0 mi NW 9.2 mph - N/A   Clear
10:35 AM 41.9 °F 38.2 °F 28.4 °F 59% 30.43 in 10.0 mi NNW 5.8 mph - N/A   Clear
10:55 AM 44.1 °F 41.5 °F 27.5 °F 52% 30.42 in 10.0 mi NNW 4.6 mph - N/A   Clear
11:15 AM 45.1 °F 39.5 °F 26.6 °F 48% 30.42 in 10.0 mi NW 11.5 mph 17.3 mph N/A   Clear
11:35 AM 46.2 °F 43.3 °F 27.3 °F 48% 30.41 in 10.0 mi NW 5.8 mph - N/A   Clear
11:55 AM 47.7 °F - 27.3 °F 45% 30.40 in 10.0 mi NNW 6.9 mph - N/A   Clear
12:15 PM 48.6 °F - 26.6 °F 42% 30.38 in 10.0 mi WSW 4.6 mph - N/A   Clear
12:35 PM 49.6 °F - 27.1 °F 42% 30.37 in 10.0 mi WNW 8.1 mph - N/A   Clear
12:55 PM 51.1 °F - 26.2 °F 38% 30.35 in 10.0 mi West 6.9 mph 16.1 mph N/A   Clear
1:15 PM 51.6 °F - 26.2 °F 37% 30.33 in 10.0 mi West 8.1 mph - N/A   Clear
1:35 PM 52.5 °F - 25.9 °F 36% 30.32 in 10.0 mi West 3.5 mph - N/A   Clear
1:55 PM 54.7 °F - 27.1 °F 35% 30.30 in 10.0 mi WNW 8.1 mph - N/A   Clear
2:15 PM 55.6 °F - 27.7 °F 34% 30.30 in 10.0 mi NW 8.1 mph - N/A   Clear
2:35 PM 56.5 °F - 27.5 °F 33% 30.29 in 10.0 mi NW 4.6 mph - N/A   Clear
2:55 PM 56.8 °F - 27.7 °F 33% 30.27 in 10.0 mi West 5.8 mph - N/A   Clear
3:15 PM 58.1 °F - 28.0 °F 32% 30.26 in 10.0 mi WSW 8.1 mph - N/A   Clear
3:35 PM 59.2 °F - 28.4 °F 31% 30.26 in 10.0 mi West 6.9 mph - N/A   Clear
3:55 PM 60.1 °F - 28.6 °F 30% 30.24 in 10.0 mi WSW 4.6 mph - N/A   Clear
4:15 PM 60.8 °F - 28.9 °F 30% 30.24 in 10.0 mi WNW 6.9 mph - N/A   Clear
4:35 PM 60.8 °F - 29.1 °F 30% 30.23 in 10.0 mi WNW 6.9 mph - N/A   Clear
4:55 PM 61.2 °F - 29.3 °F 30% 30.23 in 10.0 mi West 6.9 mph - N/A   Clear
5:35 PM 61.2 °F - 29.3 °F 30% 30.22 in 10.0 mi WNW 3.5 mph - N/A   Clear
5:55 PM 60.6 °F - 29.3 °F 31% 30.22 in 10.0 mi Calm Calm - N/A   Clear
6:15 PM 59.9 °F - 29.3 °F 31% 30.22 in 10.0 mi Calm Calm - N/A   Clear
6:35 PM 58.5 °F - 28.9 °F 33% 30.22 in 10.0 mi Calm Calm - N/A   Clear
6:55 PM 56.1 °F - 28.6 °F 35% 30.21 in 10.0 mi Calm Calm - N/A   Clear
7:15 PM 54.5 °F - 28.8 °F 37% 30.21 in 10.0 mi ESE 4.6 mph - N/A   Clear
7:35 PM 52.0 °F - 29.1 °F 41% 30.21 in 10.0 mi ESE 4.6 mph - N/A   Clear
7:55 PM 51.1 °F - 29.3 °F 43% 30.21 in 10.0 mi ESE 4.6 mph - N/A   Clear
8:15 PM 50.2 °F - 29.5 °F 45% 30.19 in 10.0 mi ESE 4.6 mph - N/A   Clear
8:35 PM 49.8 °F - 29.8 °F 46% 30.20 in 10.0 mi ESE 4.6 mph - N/A   Clear
8:55 PM 48.7 °F - 30.2 °F 49% 30.20 in 10.0 mi ESE 3.5 mph - N/A   Clear
9:15 PM 48.2 °F - 30.0 °F 49% 30.20 in 10.0 mi ESE 4.6 mph - N/A   Clear
9:35 PM 47.5 °F - 29.8 °F 50% 30.21 in 10.0 mi ESE 4.6 mph - N/A   Clear
9:55 PM 47.5 °F - 30.0 °F 51% 30.20 in 10.0 mi ESE 4.6 mph - N/A   Clear
10:15 PM 46.6 °F - 30.0 °F 53% 30.20 in 10.0 mi ESE 5.8 mph - N/A   Clear
10:35 PM 46.4 °F 44.3 °F 30.0 °F 53% 30.20 in 10.0 mi ESE 4.6 mph - N/A   Clear
10:55 PM 46.0 °F 41.9 °F 29.3 °F 52% 30.20 in 10.0 mi SE 8.1 mph - N/A   Clear
11:15 PM 46.0 °F 43.1 °F 28.2 °F 50% 30.20 in 10.0 mi ESE 5.8 mph - N/A   Clear
11:35 PM 45.5 °F 42.5 °F 27.9 °F 50% 30.19 in 10.0 mi SE 5.8 mph - N/A   Clear
11:55 PM 44.6 °F 43.1 °F 27.5 °F 51% 30.18 in 10.0 mi SE 3.5 mph - N/A   Clear